Kuiper-00142

operational
NORAD ID: 65766 Int'l Des: 2025-217 Owner: KUIP Country: US Constellation: kuiper
NOTLE

About Kuiper-00142

Description loading...

Live Position

Loading 3D Globe...

Upcoming Passes

Altitude History

Altitude vs Time

uPlot chart will show altitude changes over time

Two-Line Element Set

1 65766U 25217E 26048.63492954 .00003882 00000-0 53765-3 0 9999
2 65766 51.8981 124.2750 0000994 68.1428 291.9640 14.79957892 22013
Epoch: Feb 17, 2026 • Age: 15 hours

Current Status

Altitude 630.4 km
Velocity 7.54 km/s
Sub-Earth Point -2.55°S, 115.76°W
Launch Date Sep 25, 2025
Age 0.3 years
Type internet

Technical Details

Classification Payload
Mass 490.00 kg
Dry Mass 490.00 kg
Total Mass 490.00 kg
Length 1.80 m
Diameter 0.70 m
Span 5.00 m
Shape Box + 2 pan
Manufacturer KUIP
Bus Type Kuiper
Phase Status In Orbit
Owner/State KUIP/US

Large Constellations

Loading constellations...